York, NE

10:46 AM CDT on April 30, 2017 (GMT -0500)
York Municipal

Weather History for KJYR - March, 2013

Change the Weather History Date:

Sunday, March 17, 2013

  Actual Average Record
Temperature  
Mean Temperature 36 °F -  
Max Temperature 48 °F 50 °F 82 °F (2012)
Min Temperature 24 °F 28 °F 8 °F (1965)
Degree Days  
Heating Degree Days 29    
Moisture  
Dew Point 28 °F    
Average Humidity 80    
Maximum Humidity 100    
Minimum Humidity 54    
Precipitation  
Precipitation 0.12 in - - ()
Sea Level Pressure  
Sea Level Pressure 29.90 in    
Wind  
Wind Speed 12 mph (SE)    
Max Wind Speed 22 mph    
Max Gust Speed 24 mph    
Visibility 9 miles    
Events Rain    
Averages and records for this station are not official NWS values.
T = Trace of Precipitation, MM = Missing Value Source: NWS Daily Summary

Daily Weather History Graph

Daily Weather History Graph

Search for Another Location

Airport or City:

Trip Planner

Search our weather history database for the weather conditions in past years. The results will help you decide how hot, cold, wet, or windy it might be!

Date:

Astronomy

Mar. 17, 2013 Rise Set
Actual Time 7:38 AM CDT 7:39 PM CDT
Civil Twilight 7:11 AM CDT 8:07 PM CDT
Nautical Twilight 6:39 AM CDT 8:39 PM CDT
Astronomical Twilight 6:06 AM CDT 9:11 PM CDT
Moon 10:49 AM CDT (3/17) 12:51 AM CDT (3/17)
Length of Visible Light 12h 56m
Length of Day
12h 01m
Waxing Crescent, 31% of the Moon is Illuminated
Mar 17
Waxing Crescent
Mar 19
First Quarter
Mar 27
Full
Apr 2
Last Quarter
Apr 10
New

Hourly Weather History & Observations

Time (CDT) Temp. Windchill Dew Point Humidity Pressure Visibility Wind Dir Wind Speed Gust Speed Precip Events Conditions
12:15 AM 28.4 °F 18.0 °F 24.8 °F 86% 30.11 in 10.0 mi East 12.7 mph - N/A   Overcast
12:35 AM 28.4 °F 19.1 °F 24.8 °F 86% 30.10 in 10.0 mi East 10.4 mph - N/A   Overcast
12:55 AM 28.4 °F 18.5 °F 24.8 °F 86% 30.10 in 10.0 mi East 11.5 mph - N/A   Overcast
1:15 AM 28.4 °F 18.5 °F 24.8 °F 86% 30.09 in 10.0 mi East 11.5 mph - N/A   Overcast
1:35 AM 28.4 °F 18.0 °F 24.8 °F 86% 30.07 in 10.0 mi East 12.7 mph - N/A   Overcast
1:55 AM 28.4 °F 18.0 °F 23.0 °F 80% 30.06 in 10.0 mi East 12.7 mph 17.3 mph N/A   Overcast
2:15 AM 28.4 °F 18.0 °F 23.0 °F 80% 30.06 in 10.0 mi East 12.7 mph - N/A   Overcast
2:35 AM 28.4 °F 18.5 °F 24.8 °F 86% 30.05 in 10.0 mi East 11.5 mph - N/A   Overcast
2:55 AM 28.4 °F 18.0 °F 23.0 °F 80% 30.05 in 10.0 mi East 12.7 mph - N/A   Overcast
3:15 AM 28.4 °F 19.1 °F 24.8 °F 86% 30.05 in 10.0 mi East 10.4 mph - N/A   Overcast
3:35 AM 28.4 °F 18.0 °F 24.8 °F 86% 30.04 in 10.0 mi East 12.7 mph - N/A   Overcast
3:55 AM 28.4 °F 18.5 °F 24.8 °F 86% 30.04 in 10.0 mi East 11.5 mph - N/A   Overcast
4:15 AM 26.6 °F 15.2 °F 24.8 °F 93% 30.02 in 10.0 mi East 13.8 mph - N/A   Overcast
4:55 AM 26.6 °F 14.3 °F 23.0 °F 86% 30.01 in 10.0 mi East 16.1 mph 20.7 mph N/A   Mostly Cloudy
5:15 AM 26.6 °F 15.2 °F 23.0 °F 86% 30.00 in 10.0 mi East 13.8 mph - N/A   Mostly Cloudy
5:35 AM 26.6 °F 16.2 °F 23.0 °F 86% 30.01 in 10.0 mi East 11.5 mph - N/A   Scattered Clouds
5:55 AM 26.6 °F 15.7 °F 23.0 °F 86% 30.00 in 10.0 mi East 12.7 mph - N/A   Partly Cloudy
6:15 AM 26.6 °F 15.7 °F 23.0 °F 86% 30.01 in 10.0 mi East 12.7 mph - N/A   Mostly Cloudy
6:35 AM 26.6 °F 16.8 °F 23.0 °F 86% 30.01 in 10.0 mi East 10.4 mph - N/A   Overcast
6:55 AM 26.6 °F 15.2 °F 23.0 °F 86% 30.02 in 10.0 mi East 13.8 mph - N/A   Overcast
7:15 AM 26.6 °F 16.8 °F 23.0 °F 86% 30.02 in 10.0 mi ESE 10.4 mph - N/A   Overcast
7:35 AM 24.8 °F 12.9 °F 23.0 °F 93% 30.02 in 10.0 mi East 13.8 mph - N/A   Overcast
7:55 AM 24.8 °F 14.6 °F 23.0 °F 93% 30.02 in 9.0 mi East 10.4 mph - N/A   Mostly Cloudy
8:15 AM 24.8 °F 14.6 °F 23.0 °F 93% 30.03 in 8.0 mi ESE 10.4 mph - N/A   Mostly Cloudy
8:35 AM 24.8 °F 14.0 °F 23.0 °F 93% 30.03 in 10.0 mi SE 11.5 mph - N/A   Overcast
8:55 AM 24.8 °F 15.3 °F 23.0 °F 93% 30.03 in 10.0 mi SE 9.2 mph - N/A   Overcast
9:15 AM 26.6 °F 15.7 °F 23.0 °F 86% 30.03 in 10.0 mi SE 12.7 mph - N/A   Overcast
9:35 AM 26.6 °F 15.7 °F 21.2 °F 80% 30.03 in 10.0 mi ESE 12.7 mph - N/A   Overcast
9:55 AM 26.6 °F 16.8 °F 21.2 °F 80% 30.02 in 10.0 mi SE 10.4 mph - N/A   Overcast
10:15 AM 26.6 °F 15.7 °F 23.0 °F 86% 30.01 in 10.0 mi ESE 12.7 mph - N/A   Overcast
10:35 AM 28.4 °F 18.0 °F 23.0 °F 80% 29.99 in 10.0 mi SE 12.7 mph 16.1 mph N/A   Overcast
10:55 AM 28.4 °F 18.0 °F 21.2 °F 74% 29.98 in 10.0 mi SE 12.7 mph - N/A   Overcast
11:15 AM 28.4 °F 19.1 °F 23.0 °F 80% 29.97 in 10.0 mi SE 10.4 mph - N/A   Overcast
11:35 AM 30.2 °F 20.8 °F 23.0 °F 75% 29.96 in 10.0 mi SE 11.5 mph - N/A   Overcast
11:55 AM 30.2 °F 21.3 °F 23.0 °F 75% 29.95 in 10.0 mi SSE 10.4 mph 18.4 mph N/A   Overcast
12:15 PM 32.0 °F 23.0 °F 23.0 °F 69% 29.93 in 10.0 mi SE 11.5 mph - N/A   Overcast
12:35 PM 32.0 °F 23.0 °F 24.8 °F 75% 29.92 in 10.0 mi South 11.5 mph - N/A   Overcast
12:55 PM 33.8 °F 27.7 °F 24.8 °F 70% 29.92 in 10.0 mi South 6.9 mph - N/A   Mostly Cloudy
1:15 PM 33.8 °F 26.4 °F 24.8 °F 70% 29.91 in 10.0 mi SSE 9.2 mph - N/A   Overcast
1:35 PM 35.6 °F 28.0 °F 24.8 °F 65% 29.89 in 10.0 mi SSE 10.4 mph 19.6 mph N/A   Overcast
1:55 PM 35.6 °F 27.5 °F 26.6 °F 70% 29.87 in 10.0 mi SSE 11.5 mph - N/A   Overcast
2:15 PM 37.4 °F 29.3 °F 26.6 °F 65% 29.86 in 10.0 mi SSE 12.7 mph 16.1 mph N/A   Overcast
2:35 PM 39.2 °F 31.2 °F 28.4 °F 65% 29.84 in 10.0 mi SSE 13.8 mph - N/A   Mostly Cloudy
2:55 PM 41.0 °F 33.5 °F 30.2 °F 65% 29.81 in 10.0 mi SSE 13.8 mph 21.9 mph N/A   Scattered Clouds
3:15 PM 42.8 °F 34.8 °F 30.2 °F 61% 29.79 in 10.0 mi SSE 17.3 mph 20.7 mph N/A   Partly Cloudy
3:35 PM 44.6 °F 37.4 °F 32.0 °F 61% 29.77 in 10.0 mi South 16.1 mph 21.9 mph N/A   Clear
3:55 PM 44.6 °F 37.8 °F 32.0 °F 61% 29.75 in 10.0 mi South 15.0 mph - N/A   Clear
4:15 PM 44.6 °F 37.4 °F 32.0 °F 61% 29.74 in 10.0 mi SSE 16.1 mph 21.9 mph N/A   Clear
4:35 PM 46.4 °F 39.2 °F 32.0 °F 57% 29.73 in 10.0 mi SSE 18.4 mph 24.2 mph N/A   Clear
4:55 PM 48.2 °F - 32.0 °F 54% 29.71 in 10.0 mi SSE 18.4 mph 24.2 mph N/A   Clear
5:15 PM 48.2 °F - 32.0 °F 54% 29.71 in 10.0 mi SSE 18.4 mph 24.2 mph N/A   Clear
5:35 PM 48.2 °F - 32.0 °F 54% 29.70 in 10.0 mi SSE 16.1 mph - N/A   Scattered Clouds
5:55 PM 46.4 °F 39.2 °F 32.0 °F 57% 29.69 in 10.0 mi SSE 18.4 mph 23.0 mph N/A   Scattered Clouds
6:15 PM 46.4 °F 39.5 °F 32.0 °F 57% 29.69 in 10.0 mi South 17.3 mph 24.2 mph N/A   Mostly Cloudy
6:35 PM 44.6 °F 38.1 °F 32.0 °F 61% 29.68 in 10.0 mi South 13.8 mph 20.7 mph N/A   Overcast
6:55 PM 42.8 °F 36.6 °F 35.6 °F 76% 29.70 in 10.0 mi SW 11.5 mph - N/A   Overcast
7:15 PM 41.0 °F 34.7 °F 35.6 °F 81% 29.72 in 10.0 mi SSW 10.4 mph - N/A   Overcast
7:35 PM 41.0 °F 35.2 °F 35.6 °F 81% 29.72 in 10.0 mi SW 9.2 mph - N/A   Overcast
7:55 PM 39.2 °F 33.0 °F 33.8 °F 81% 29.72 in 10.0 mi SSW 9.2 mph - N/A   Overcast
8:15 PM 39.2 °F 32.5 °F 35.6 °F 87% 29.74 in 10.0 mi SW 10.4 mph - N/A   Overcast
8:35 PM 39.2 °F 33.0 °F 35.6 °F 87% 29.75 in 10.0 mi SSW 9.2 mph - N/A   Mostly Cloudy
8:55 PM 37.4 °F 32.1 °F 35.6 °F 93% 29.74 in 4.0 mi SSW 6.9 mph - N/A   Mostly Cloudy
9:15 PM 37.4 °F 32.1 °F 35.6 °F 93% 29.75 in 6.0 mi South 6.9 mph - N/A Rain Light Rain
9:35 PM 37.4 °F 32.1 °F 35.6 °F 93% 29.73 in 4.0 mi SSE 6.9 mph - 0.02 in Rain Light Rain
9:55 PM 37.4 °F 32.1 °F 37.4 °F 100% 29.76 in 4.0 mi SW 6.9 mph - 0.03 in   Overcast
10:15 PM 37.4 °F 32.1 °F 35.6 °F 93% 29.77 in 3.0 mi WSW 6.9 mph - N/A Rain Light Rain
10:35 PM 37.4 °F 31.4 °F 35.6 °F 93% 29.78 in 5.0 mi West 8.1 mph - N/A   Overcast
10:55 PM 35.6 °F 31.7 °F 35.6 °F 100% 29.76 in 4.0 mi SSW 4.6 mph - 0.02 in Rain Light Rain
11:15 PM 35.6 °F 31.7 °F 35.6 °F 100% 29.76 in 3.0 mi South 4.6 mph - 0.02 in Rain Light Rain
11:35 PM 35.6 °F 30.7 °F 35.6 °F 100% 29.76 in 3.0 mi South 5.8 mph - 0.04 in Rain Light Rain
11:55 PM 35.6 °F 24.2 °F 33.8 °F 93% 29.69 in 2.5 mi SE 21.9 mph - 0.07 in   Overcast